RH
25 25 25 25 24 22 21 20 19 20 22 22 23 22 19 18 19 19 20 21 19 17 16 15 13 11 9 9 9 9 10 11 11 10 7 3 5 8 10 9 6 4 4 6 5 12 21 20 22 22 21 19 17 16 13 12 11 10 11 11 9 7 9 9 9 13 15 15 16 15 16 16 17 18 19 21 23 24 24 24 24 25 28 35 44 49 55 60
28 28 27 27 26 24 22 21 19 19 20 21 22 22 20 19 19 20 22 22 19 16 15 14 14 12 9 10 10 10 10 10 12 10 5 2 5 7 7 6 5 4 4 5 8 16 19 16 16 18 17 15 13 12 10 10 10 10 11 11 8 6 7 6 8 11 12 14 15 15 15 17 18 19 20 21 24 24 24 27 29 31 34 40 46 51 56 60
30 29 29 28 27 26 24 22 20 19 19 20 21 22 21 19 19 21 23 21 17 14 11 11 12 11 10 10 10 11 10 11 14 9 2 2 4 5 5 5 4 4 4 5 11 16 15 12 14 15 14 12 10 8 8 8 8 8 9 9 7 6 7 7 9 11 11 12 13 14 14 16 16 17 23 22 20 24 28 30 32 35 38 41 46 50 54 56
29 29 29 28 27 26 24 23 22 20 19 19 19 21 21 19 20 22 23 20 16 11 8 9 10 10 11 11 11 11 12 14 16 9 3 4 3 3 4 3 4 4 3 7 14 15 11 11 12 12 13 12 9 6 6 7 7 6 6 7 6 6 6 7 10 10 11 12 13 13 13 15 14 20 26 23 23 24 26 30 32 37 39 41 45 46 49 52
27 27 27 27 27 25 24 23 22 21 19 19 19 19 20 19 19 22 22 20 16 8 7 10 9 10 11 11 12 11 13 15 15 12 6 5 4 2 4 3 4 4 3 8 16 14 10 10 10 11 12 11 8 5 6 5 5 6 6 7 6 7 7 8 10 10 11 11 12 12 13 14 17 28 28 26 35 29 24 30 33 37 40 41 43 44 46 48
25 25 25 25 25 25 24 22 21 21 19 19 19 18 20 20 19 22 22 20 16 8 8 9 8 11 10 12 12 11 16 13 12 16 9 6 7 3 3 4 3 3 4 9 16 14 9 8 8 10 10 11 8 4 5 4 4 6 7 7 8 8 9 9 10 10 11 11 12 12 14 14 17 31 32 32 41 34 26 32 34 38 40 42 44 44 46 47
23 23 23 22 23 23 23 22 21 20 20 19 18 18 19 19 19 21 22 21 16 9 8 8 7 10 10 12 12 13 19 13 10 17 12 7 7 4 3 3 3 3 5 10 14 13 9 7 8 9 9 9 6 3 4 3 4 7 7 7 8 9 9 10 10 10 11 11 11 12 15 17 17 26 33 35 38 33 31 34 36 39 41 43 44 45 47 48
20 20 20 21 20 21 22 22 21 20 19 19 18 18 18 19 20 21 22 21 17 11 8 8 5 8 9 11 15 18 18 11 9 14 12 8 5 3 3 3 4 4 6 11 12 11 8 7 8 9 9 7 5 3 4 3 5 7 8 8 8 9 10 10 10 10 10 11 12 14 16 18 20 22 27 30 31 31 33 35 38 41 41 43 44 46 49 49
18 19 19 19 19 20 20 21 21 20 19 19 19 18 17 19 19 21 22 21 19 12 9 11 5 5 8 9 18 21 15 11 12 13 12 10 5 3 3 3 4 4 6 11 12 11 7 6 8 8 8 6 4 4 4 4 6 8 8 9 9 9 10 10 10 9 10 11 12 14 16 18 20 23 26 28 30 32 34 36 39 41 41 42 44 47 50 51
16 17 17 18 17 18 19 20 21 20 20 18 18 18 17 18 19 21 22 21 21 13 11 13 4 2 7 10 17 16 13 14 15 15 13 9 4 2 3 4 4 5 8 10 11 10 7 6 8 8 8 6 4 4 4 5 7 7 7 9 9 10 10 9 9 10 11 12 13 14 17 19 19 22 27 29 31 33 34 36 38 40 40 40 43 49 52 51
14 14 15 16 16 17 17 18 20 21 20 18 18 18 17 18 18 21 22 23 21 14 13 14 6 2 6 16 23 15 12 14 13 16 16 9 3 2 3 6 7 7 9 9 9 9 6 6 7 7 7 5 4 4 4 6 7 7 8 9 9 9 9 8 9 11 11 11 12 14 16 17 19 21 26 29 31 33 33 34 36 39 39 39 45 52 53 53
12 12 13 14 15 15 15 17 18 20 20 19 18 17 17 17 17 19 22 23 21 17 14 14 9 1 8 25 24 15 13 15 13 13 15 12 5 1 3 7 8 7 7 7 7 7 6 6 7 7 5 4 4 4 6 7 7 8 9 10 10 9 10 9 10 11 11 11 12 14 16 17 19 21 25 29 31 33 33 32 34 37 38 41 48 54 55 54
10 11 12 12 13 13 14 15 16 19 21 20 18 18 18 17 17 19 22 23 22 19 13 15 12 0 16 31 17 10 14 14 14 11 13 15 9 4 4 7 7 6 6 7 6 6 6 6 8 8 6 4 3 5 7 7 8 9 9 10 10 11 11 10 11 12 12 12 11 14 20 21 20 21 25 28 30 32 34 35 36 36 37 41 47 53 54 56
8 9 10 11 12 12 13 13 14 17 19 20 19 18 17 17 17 18 21 23 23 23 15 16 15 6 22 30 13 11 13 12 16 13 12 15 12 7 6 7 7 6 6 6 5 5 5 7 9 8 6 5 4 5 6 7 9 9 10 11 10 12 14 11 11 12 12 13 12 14 22 23 20 22 24 27 28 29 31 34 36 36 37 41 46 49 52 54
6 7 7 9 10 11 12 12 13 15 18 21 19 18 18 16 16 17 21 22 24 26 17 14 18 18 26 26 17 15 9 11 17 13 11 12 11 8 5 6 6 5 5 5 5 4 6 8 10 8 7 5 5 5 6 8 9 9 14 14 11 13 14 11 11 11 12 13 11 14 22 23 20 21 23 25 26 27 29 30 32 35 36 40 43 46 50 52
5 5 6 7 8 9 10 11 12 14 17 20 19 19 17 15 17 17 20 23 25 24 17 23 36 38 33 24 19 16 9 10 13 11 11 11 10 7 5 6 6 5 5 5 5 4 7 9 9 8 7 6 5 6 8 10 10 11 15 15 13 13 13 13 11 9 11 12 11 13 18 20 19 20 22 23 25 27 29 29 31 34 36 38 41 44 50 52
4 5 5 6 7 7 9 10 11 13 16 19 19 17 17 17 16 16 22 24 23 21 19 31 46 46 34 22 18 17 10 8 9 10 10 10 10 7 6 7 6 6 5 5 6 7 8 9 9 8 6 6 5 6 11 14 12 13 13 13 14 13 14 15 12 9 11 12 13 13 15 18 18 19 20 21 24 26 27 29 32 35 37 38 42 46 49 53
4 4 5 5 6 6 7 8 9 11 15 19 18 17 18 16 14 20 27 23 21 26 25 28 37 37 29 20 19 16 8 6 9 9 9 9 9 6 7 6 6 6 5 6 8 9 9 9 8 8 6 6 6 7 11 13 12 13 13 12 13 12 14 15 13 11 10 10 14 15 16 18 17 18 20 20 22 24 25 28 31 35 38 40 44 48 51 56
4 5 5 5 5 6 6 6 8 9 13 18 17 17 17 17 25 31 28 25 30 33 26 24 28 26 18 14 16 13 6 7 9 8 8 8 7 6 5 5 5 5 5 7 9 9 8 9 8 8 8 6 6 6 8 9 9 11 11 10 12 11 12 14 12 11 10 11 14 16 17 18 18 18 19 19 20 21 23 25 29 34 38 39 43 47 53 60
5 5 4 5 5 5 6 5 7 6 9 16 17 16 17 22 33 34 28 32 36 27 19 19 20 17 13 11 12 9 7 9 9 7 7 7 6 5 4 4 4 4 6 7 9 8 8 10 9 8 7 5 5 6 6 6 7 8 9 9 10 10 11 11 11 10 10 11 14 16 18 18 17 18 18 18 20 20 21 24 28 35 38 38 40 44 51 60
4 4 4 5 5 5 6 5 6 6 7 11 13 14 16 19 22 22 24 28 24 19 20 20 16 14 13 10 8 6 8 11 9 7 7 8 7 4 3 4 4 5 6 6 7 8 8 9 8 6 5 4 5 5 6 6 6 7 7 7 8 9 9 9 10 10 10 12 14 15 18 19 17 18 17 17 19 19 20 23 26 33 37 37 40 44 49 56
4 5 4 4 5 5 5 5 5 5 5 9 12 13 16 18 16 16 19 19 15 15 18 17 14 12 11 10 7 7 9 10 9 8 7 8 8 5 4 4 5 6 6 6 7 8 9 8 7 5 4 4 4 5 6 6 6 6 5 6 8 8 8 8 9 9 9 11 13 14 18 19 18 17 17 17 18 19 20 22 23 29 34 36 40 43 46 55
4 4 4 4 5 4 5 5 4 7 11 13 14 16 18 19 15 15 19 18 17 15 12 14 14 10 10 11 8 8 10 9 7 7 5 7 8 6 4 4 5 5 5 6 7 9 10 8 6 5 4 4 4 5 5 5 5 5 4 6 7 7 7 8 9 9 10 9 10 14 16 18 19 19 18 17 18 18 20 21 22 25 30 34 38 40 44 54
4 4 4 4 4 4 5 4 5 15 23 20 16 15 17 17 14 18 22 19 16 14 12 13 12 10 10 9 9 10 10 8 7 6 5 5 6 6 5 4 5 5 5 6 6 8 9 7 5 4 4 4 4 5 5 6 6 5 5 5 6 6 6 8 10 10 10 8 9 12 17 26 28 22 21 20 17 18 19 20 22 24 27 31 33 36 40 46
5 5 4 4 4 4 4 4 10 22 24 19 15 13 14 18 20 22 24 23 20 14 11 12 11 10 9 9 10 9 8 8 7 6 5 5 5 5 5 4 4 5 5 5 6 7 7 6 5 5 5 4 4 5 5 6 6 5 6 5 5 6 5 7 9 10 10 10 10 9 19 37 35 25 30 32 25 22 19 19 22 23 25 27 28 33 36 38
5 5 4 5 4 4 4 7 15 23 21 17 13 13 17 20 22 23 25 28 23 12 9 11 11 8 8 9 9 9 8 8 6 6 6 5 5 5 5 4 4 5 5 5 5 6 6 5 5 6 6 5 5 5 4 5 5 5 5 4 5 5 4 5 6 7 9 11 11 7 15 35 38 30 32 36 34 29 22 20 21 23 25 25 26 30 32 35
5 5 5 4 4 5 4 5 10 11 12 12 9 11 16 17 19 22 28 32 22 11 9 9 9 8 8 8 8 10 9 7 7 6 6 6 5 5 6 5 5 5 4 5 6 6 5 5 5 5 6 5 5 5 4 4 5 5 4 3 4 4 4 5 4 5 8 9 11 8 10 24 35 34 30 30 35 32 25 22 22 22 25 24 24 27 29 32
5 5 5 5 4 5 5 5 5 4 5 9 9 12 14 16 19 20 32 38 20 7 9 8 8 9 7 8 9 9 8 7 7 7 6 7 6 5 5 5 5 5 4 5 7 6 5 5 5 5 5 6 5 5 4 4 5 5 4 4 4 4 4 4 4 6 7 9 13 11 9 15 26 34 32 27 31 31 27 25 23 23 24 23 23 25 27 29
6 5 5 5 4 5 7 5 4 4 6 7 9 13 14 17 18 17 34 42 19 6 10 8 8 9 8 8 9 8 6 6 6 6 6 6 6 5 5 4 4 4 4 5 5 5 5 5 4 4 5 5 4 4 4 4 5 3 4 6 5 4 5 4 5 6 6 11 14 11 10 14 19 28 34 34 33 30 25 24 25 23 22 24 24 24 25 28
7 6 6 6 4 6 8 5 7 11 14 15 14 16 18 18 18 24 38 34 15 8 9 8 8 8 8 9 9 8 6 5 5 6 6 6 6 6 5 5 4 4 5 5 4 4 4 3 3 3 4 4 4 4 4 4 4 3 4 6 5 5 5 5 6 7 11 16 14 10 10 15 17 20 27 34 33 24 19 22 24 21 20 24 25 24 24 27
7 6 6 6 4 6 6 5 9 15 22 26 21 19 21 17 18 32 38 21 8 9 8 7 8 6 7 10 10 8 6 5 5 5 7 6 6 6 6 6 5 5 6 5 5 5 3 3 4 4 3 4 4 4 4 3 3 4 5 6 8 8 7 8 9 10 16 19 14 10 9 12 17 16 15 20 21 17 17 21 22 20 20 23 25 24 24 26
6 6 6 6 5 5 5 4 6 9 16 19 16 15 20 20 23 32 29 13 7 9 7 7 7 6 7 9 8 7 6 6 5 5 7 6 6 7 7 7 6 7 7 6 6 5 4 4 4 5 4 4 4 4 4 4 3 4 6 7 11 12 12 14 15 15 17 16 12 10 9 10 14 14 11 11 14 16 18 17 17 18 19 20 22 24 24 26
6 6 5 5 4 4 5 3 4 5 6 8 10 13 18 25 28 25 19 13 9 7 5 6 6 6 7 8 7 6 5 6 5 5 6 5 6 6 6 6 5 6 7 6 6 5 4 5 5 5 4 4 4 4 5 5 4 5 6 8 11 14 16 18 17 16 16 14 10 8 9 11 11 11 10 9 9 11 13 12 11 15 19 20 20 22 24 24
4 4 4 5 4 5 4 3 4 3 4 9 12 14 20 27 26 20 16 13 8 6 5 5 5 6 7 7 7 4 5 7 5 6 7 6 6 6 6 6 5 5 6 6 5 5 6 8 7 5 5 4 4 4 5 5 5 5 5 7 9 11 15 18 16 15 15 13 10 9 10 11 12 12 11 8 7 7 9 10 10 12 16 18 18 20 23 23
3 3 4 3 4 5 3 3 4 2 7 14 12 14 24 26 20 17 16 11 7 6 5 4 5 6 7 7 6 4 5 6 5 6 7 6 6 6 6 6 6 5 5 6 6 5 7 9 7 4 4 4 5 4 4 5 6 6 4 6 8 8 11 14 13 12 12 12 11 11 11 9 10 12 9 7 7 8 8 9 9 11 12 15 18 19 22 23
2 3 3 3 6 6 6 7 3 3 13 17 12 16 22 18 14 13 12 9 7 7 7 6 5 6 7 7 6 5 5 6 6 6 7 6 5 5 5 6 6 5 4 5 6 6 8 8 5 5 5 4 5 5 4 5 6 6 6 7 7 5 6 10 11 10 11 13 13 11 11 9 9 11 8 7 9 9 9 8 7 9 11 15 21 21 22 24
2 2 1 3 9 12 18 17 6 7 18 16 12 17 16 12 11 10 9 8 7 7 8 8 6 6 7 7 6 5 5 6 6 6 7 6 5 5 5 5 4 4 4 4 5 6 7 7 5 5 5 4 5 4 4 4 5 6 7 6 5 5 6 9 13 13 13 14 13 11 11 11 13 13 10 9 10 9 10 10 8 9 11 14 19 23 25 24
1 8 8 4 5 12 24 26 15 15 19 13 13 18 14 10 9 7 8 8 6 6 8 9 7 6 6 6 6 5 5 6 6 7 7 6 6 5 4 5 4 4 4 4 6 6 5 7 6 5 6 5 4 5 5 4 4 5 5 4 5 7 9 10 12 14 15 16 14 11 10 10 11 12 12 12 12 10 12 14 11 10 11 12 14 22 28 26
12 32 32 16 8 14 27 29 22 21 16 9 14 17 13 11 9 7 8 9 8 7 8 9 8 6 5 5 5 5 5 5 5 6 7 6 6 4 4 4 4 3 4 5 6 5 5 7 8 5 5 5 4 5 6 5 4 4 4 4 5 7 8 10 11 12 14 17 16 14 13 12 11 11 12 13 13 12 13 17 16 10 10 12 12 18 29 32
24 40 33 19 16 19 27 29 24 20 12 9 12 13 12 11 9 8 8 9 9 8 9 11 9 7 6 5 4 5 5 5 5 6 7 6 5 4 4 4 3 4 4 5 5 5 5 7 8 7 5 5 6 6 6 6 5 5 5 6 6 6 7 8 10 9 11 15 17 16 15 13 12 12 14 14 12 12 11 13 16 12 8 11 11 14 26 33
23 32 21 20 25 24 28 29 23 17 11 9 10 10 11 10 7 7 7 9 9 7 8 10 9 8 8 6 4 4 5 6 5 5 5 5 5 6 4 3 4 4 4 5 5 5 6 7 8 8 7 7 6 5 5 5 4 5 6 6 6 6 6 9 12 10 8 12 15 14 15 13 11 13 15 13 10 10 10 10 12 12 9 10 12 13 19 26
35 32 17 22 30 30 28 24 19 16 11 9 9 9 10 9 7 7 6 8 9 7 8 9 9 10 10 9 7 5 4 5 5 5 5 5 5 5 5 4 4 3 4 5 5 5 6 7 8 9 8 7 6 5 5 4 4 4 4 5 6 6 7 10 13 12 10 12 12 10 13 14 12 13 14 13 12 9 10 11 10 10 11 11 12 13 14 21
48 32 20 25 30 28 25 20 16 14 11 9 9 8 9 8 7 7 7 8 8 8 8 9 9 10 10 10 10 7 5 5 5 5 4 4 5 5 5 4 4 4 4 5 5 5 5 7 10 11 10 8 5 4 5 4 4 5 4 4 5 5 6 7 9 12 12 11 11 11 14 16 16 18 16 14 13 9 8 11 10 10 12 12 13 14 15 23
52 31 22 24 26 24 21 19 16 13 12 10 9 9 8 7 6 7 7 8 9 8 8 8 8 9 9 9 11 10 6 5 6 5 5 5 4 4 4 4 4 4 4 4 5 5 5 8 12 13 13 12 10 8 8 7 5 5 5 5 4 6 6 5 9 15 14 12 13 14 16 18 20 22 18 12 11 10 9 11 10 11 12 12 13 14 16 23
60 38 19 14 22 24 20 18 15 13 13 11 10 10 8 7 6 6 8 9 9 9 9 8 7 8 8 9 10 10 9 7 6 5 4 4 4 4 3 4 4 3 4 7 7 4 6 10 13 13 13 14 15 14 11 8 7 6 6 5 5 6 6 7 12 16 15 15 16 15 16 20 21 18 14 12 11 12 12 11 11 12 13 13 14 14 18 24
59 44 24 14 18 19 18 17 14 14 14 13 14 12 8 8 6 6 8 10 11 11 10 9 7 7 8 9 10 10 10 9 7 6 6 4 4 4 4 4 4 5 10 11 7 5 7 9 12 17 15 12 15 16 10 7 7 6 6 5 5 6 5 8 12 15 18 19 18 18 20 21 20 16 14 13 12 14 15 13 12 12 12 13 15 15 19 26
66 51 33 24 23 18 14 14 11 12 14 15 18 16 12 10 7 7 11 11 11 11 10 9 7 7 8 9 10 11 10 10 9 8 6 4 3 3 4 4 3 9 15 11 5 6 8 8 9 15 16 10 11 12 7 6 7 6 6 6 6 6 6 8 10 15 23 22 18 24 28 23 19 17 15 16 17 19 20 14 11 13 12 12 15 16 18 23
60 45 31 29 30 24 17 14 11 10 10 12 17 18 16 13 9 9 12 12 11 11 11 11 8 7 8 8 9 12 12 12 13 11 8 8 7 5 4 3 5 12 13 7 5 6 8 9 8 8 10 7 6 7 6 7 7 6 7 7 6 6 6 8 9 11 18 19 19 28 33 24 16 13 11 14 17 17 16 12 11 13 13 12 13 15 17 19
41 36 33 32 32 28 24 22 18 16 13 14 16 16 17 20 16 10 10 12 12 10 11 13 10 8 8 8 10 15 16 18 21 22 21 20 17 10 6 5 7 10 8 5 7 7 7 10 9 6 7 6 5 6 6 7 7 6 7 7 6 7 5 6 8 6 10 15 15 24 32 23 12 11 10 11 12 12 11 11 12 13 13 14 13 13 15 16
44 44 44 43 37 28 26 25 22 21 18 17 20 19 19 25 24 14 10 11 13 11 11 11 10 10 9 9 11 13 15 20 25 25 24 24 21 15 11 8 6 6 6 6 7 8 8 10 9 7 8 8 7 6 5 6 7 7 8 7 6 7 5 5 7 5 9 12 9 17 29 24 13 12 13 11 11 13 14 14 14 14 14 15 14 13 14 13
59 51 48 52 45 32 28 26 22 22 20 20 27 27 21 22 22 15 11 11 11 12 14 11 10 11 10 9 11 12 14 19 22 20 18 19 20 16 13 11 9 8 8 7 7 8 9 10 9 10 12 9 7 6 6 6 7 7 7 7 6 7 6 6 7 7 9 13 14 16 21 19 14 13 12 11 12 14 16 16 16 16 15 15 16 18 17 15
65 48 43 55 53 38 28 24 21 22 21 18 22 22 17 16 15 13 19 23 16 12 15 16 14 15 15 14 17 19 18 18 18 17 16 16 15 13 12 13 11 9 9 9 9 9 9 10 10 10 12 11 9 8 7 8 11 11 8 7 6 6 7 7 7 7 8 12 16 16 14 17 17 14 11 12 14 15 16 16 15 15 17 18 20 21 20 19
Wind_Speed
19 19 19 19 19 19 20 20 20 20 20 20 20 20 21 21 21 20 21 23 24 23 21 21 20 19 19 17 16 15 14 16 17 19 23 20 14 15 16 14 12 11 10 7 5 7 9 8 8 7 8 10 12 12 8 7 9 8 6 3 2 2 7 6 5 9 9 10 10 10 11 10 11 12 14 13 12 13 12 12 11 14 19 23 25 26 25 23
19 19 20 20 20 19 19 20 20 20 20 21 20 20 21 21 21 20 22 24 25 23 21 20 18 18 17 16 15 13 14 15 17 22 24 19 16 18 19 18 14 11 11 8 8 9 10 9 6 7 9 10 10 8 7 8 8 6 6 4 2 4 7 7 7 12 10 10 10 10 11 11 12 13 12 10 11 11 12 14 15 20 23 26 27 26 24 22
20 20 20 20 20 20 20 20 20 20 20 21 21 20 21 21 21 21 23 25 25 22 20 18 16 15 14 14 13 12 13 13 18 25 22 17 19 21 19 19 15 11 11 8 9 10 10 11 6 7 10 10 9 8 6 8 9 6 5 3 4 5 7 10 10 13 11 11 11 10 11 10 10 11 8 8 12 10 10 13 16 21 24 26 26 24 24 22
20 20 20 20 21 20 20 20 20 20 20 21 21 21 21 21 21 21 23 25 23 20 17 15 13 12 11 11 12 10 11 12 15 20 15 14 20 21 19 19 15 12 10 8 10 11 10 11 8 9 11 13 11 9 7 8 5 4 4 3 6 4 5 9 10 13 12 12 12 9 11 10 10 15 10 6 9 8 10 13 16 21 24 25 26 24 22 21
20 20 20 21 21 21 21 20 20 20 20 21 22 21 21 21 21 21 23 24 21 18 16 13 11 9 9 10 10 9 8 6 4 6 10 13 16 19 19 18 16 13 9 9 11 12 11 12 12 12 11 13 10 7 8 5 2 4 7 8 6 6 5 8 12 14 12 12 11 9 9 9 13 19 16 14 6 2 9 16 18 23 25 25 25 23 22 21
20 21 21 21 21 21 21 21 21 21 21 21 21 21 21 21 21 21 23 23 19 17 15 12 9 7 8 9 10 9 8 4 5 3 8 13 14 17 20 18 16 13 10 11 12 12 13 14 14 14 12 13 11 7 7 5 4 4 7 6 5 7 7 10 12 11 11 11 9 8 10 9 13 19 23 20 2 6 11 17 19 22 23 24 24 22 21 20
20 21 21 21 21 21 21 21 21 21 21 21 22 21 21 21 21 21 22 22 17 16 14 13 10 7 7 8 10 10 13 13 8 6 5 11 14 16 19 19 17 14 13 14 14 13 13 15 16 15 14 12 10 8 8 7 0 2 5 6 5 7 9 11 11 10 10 10 8 9 11 10 12 15 21 20 13 8 14 17 18 21 22 23 22 21 20 19
20 21 21 21 21 21 21 21 21 21 21 22 22 21 21 21 21 20 22 21 16 15 15 14 11 8 7 8 9 10 18 20 14 9 7 9 13 17 20 19 18 16 17 17 17 15 14 17 17 16 14 8 8 8 6 3 3 5 4 7 7 8 11 10 10 11 11 9 9 11 12 13 13 13 14 14 12 12 16 17 19 20 20 21 21 21 20 18
21 21 21 21 21 21 21 21 21 21 21 22 22 22 21 21 21 20 21 21 16 14 14 14 13 9 9 9 8 10 16 15 11 11 11 12 14 19 21 20 19 17 17 18 18 17 16 18 18 17 14 7 6 5 5 5 2 9 6 6 8 10 11 10 12 11 10 10 10 12 13 14 14 13 12 12 13 14 16 18 19 20 19 19 19 20 20 18
21 22 22 21 21 21 21 21 22 22 21 22 23 22 21 21 21 21 20 20 16 13 13 14 13 9 9 8 9 9 6 7 8 9 10 13 15 21 22 19 18 18 18 18 18 19 19 18 17 16 13 9 7 7 4 7 5 10 6 9 10 10 10 12 14 11 10 11 12 13 12 15 15 11 10 12 14 14 17 17 17 18 18 18 18 18 18 17
22 22 22 22 22 22 21 21 21 22 21 21 23 23 22 21 21 21 20 20 16 12 13 13 12 7 10 8 12 11 3 5 6 6 6 10 17 23 22 19 18 19 19 18 19 19 20 18 15 14 9 6 9 7 5 6 11 11 9 10 9 10 12 12 13 10 9 11 13 14 13 14 14 11 11 15 16 14 16 16 15 17 16 17 17 17 16 15
23 23 23 23 23 22 22 22 21 22 22 21 22 23 23 21 21 21 20 19 16 12 11 12 11 6 9 9 20 16 3 4 7 8 8 11 18 22 21 19 18 20 19 18 18 17 19 17 13 14 8 5 7 5 6 9 12 11 10 9 9 9 9 11 10 8 8 9 13 13 11 11 11 11 14 16 16 15 15 15 16 16 15 16 16 16 16 15
23 23 23 24 24 23 23 22 22 22 22 22 22 23 23 22 21 21 19 18 16 12 10 10 9 4 6 11 20 17 5 6 7 9 11 13 17 18 19 18 18 20 20 18 17 16 18 13 11 15 12 9 5 7 8 9 9 9 10 7 8 7 6 9 9 8 8 8 11 11 5 8 10 13 16 17 17 17 15 14 15 15 15 16 16 15 15 14
24 23 24 24 24 24 24 23 22 22 22 22 22 23 24 23 22 21 20 19 17 14 10 8 7 3 7 12 12 12 13 9 6 11 13 14 17 17 18 19 19 20 20 18 16 14 15 12 12 15 16 17 8 6 6 8 7 7 8 5 6 6 6 10 10 9 8 5 9 9 3 5 11 14 16 17 17 17 17 16 14 14 15 16 15 15 15 14
24 24 24 24 24 25 24 24 23 22 22 22 22 23 24 24 23 22 20 19 18 15 10 7 7 4 9 16 13 10 17 13 9 14 15 17 19 19 21 21 20 21 20 18 16 14 12 12 14 13 14 18 13 7 6 6 7 7 6 5 6 5 6 9 9 10 8 6 11 8 4 7 10 13 17 16 16 16 17 17 16 16 16 16 15 14 14 14
25 25 25 24 24 24 25 25 24 23 22 22 23 23 24 25 25 23 20 19 18 14 9 4 4 6 9 11 8 11 17 16 14 14 16 19 20 19 21 21 20 20 19 19 16 13 13 15 16 15 15 13 10 9 8 6 6 6 5 6 6 5 6 7 8 11 9 7 10 6 2 7 10 13 17 16 17 17 14 15 15 15 16 15 15 14 14 14
25 25 25 25 25 24 25 25 24 24 22 21 23 23 24 25 26 23 18 17 14 10 9 4 2 8 12 7 5 11 14 16 16 15 18 20 19 19 21 20 19 19 20 19 14 11 15 17 15 13 14 9 6 8 8 6 7 7 7 6 6 8 6 6 9 10 8 5 6 5 2 8 12 13 16 16 17 17 15 15 14 14 14 14 13 14 15 15
25 26 26 25 25 25 24 25 25 24 23 21 23 23 24 26 28 23 15 10 7 6 6 7 4 6 12 14 15 13 13 16 17 18 19 19 20 20 21 21 19 20 20 16 13 14 16 17 14 9 10 9 8 9 7 8 9 9 9 6 7 9 7 6 7 9 10 6 5 9 5 9 14 12 15 16 16 17 17 17 16 15 14 14 14 14 15 15
26 25 26 26 25 25 24 24 24 24 23 21 21 23 24 25 23 14 5 4 4 5 6 10 14 7 8 10 17 13 12 17 17 19 20 20 20 21 22 21 20 21 18 12 13 17 15 13 13 9 9 10 10 12 11 12 13 12 12 9 9 9 8 8 6 7 11 7 7 10 7 10 13 12 14 15 16 16 16 18 18 17 16 16 16 16 16 16
25 25 26 26 25 25 24 24 24 23 24 21 22 23 20 18 11 0 4 8 12 15 17 14 18 17 15 8 12 12 13 16 17 20 21 20 21 23 23 22 20 19 16 11 12 18 16 11 10 11 11 12 14 17 14 11 13 15 13 10 11 11 9 11 8 8 10 7 6 8 8 11 12 11 13 15 16 14 15 17 18 20 19 17 18 18 18 18
26 26 26 26 25 25 24 23 22 21 22 21 22 21 17 16 10 6 6 11 18 22 26 24 19 22 20 10 10 16 17 16 17 20 20 20 21 21 22 22 18 13 14 15 13 16 16 10 12 14 14 14 16 18 16 13 12 13 11 8 10 10 8 12 13 11 10 6 4 6 8 10 11 11 13 14 14 12 15 17 18 22 22 19 19 19 19 18
25 26 26 26 25 25 23 22 21 20 20 20 22 20 17 17 14 14 15 15 20 22 23 25 24 24 19 14 12 18 18 15 18 20 22 23 21 18 21 20 15 11 15 17 13 13 12 11 15 17 15 14 15 17 18 18 16 12 9 7 8 8 9 11 14 14 11 7 6 8 7 7 9 10 11 13 12 11 14 15 16 20 22 20 19 20 21 20
25 26 26 26 25 25 23 21 18 16 16 18 21 19 16 16 16 16 16 15 18 21 21 21 24 23 19 17 13 18 17 15 18 22 25 25 22 20 21 17 14 14 15 15 13 11 10 12 17 17 15 16 16 15 17 17 11 7 6 6 7 8 9 7 11 16 13 7 6 10 9 5 7 8 9 13 13 11 13 14 15 18 20 20 20 20 21 21
24 25 26 26 26 24 22 20 15 10 12 16 19 16 14 15 15 15 16 15 14 19 23 22 23 23 21 18 13 17 19 17 18 22 26 26 24 21 19 17 16 14 14 17 18 14 12 14 18 18 16 17 16 15 15 13 6 5 10 10 7 9 11 7 12 15 13 9 7 9 8 3 4 7 6 8 11 12 13 14 15 17 19 19 19 20 20 21
24 25 25 25 26 25 22 18 10 6 10 14 16 15 13 12 11 12 14 12 11 15 20 21 23 22 22 20 15 17 18 18 20 23 26 27 25 19 16 18 15 12 16 20 19 15 14 16 18 17 15 17 17 14 16 13 7 8 13 17 12 10 12 12 18 15 9 8 8 8 6 3 6 9 4 1 6 9 12 14 16 17 18 19 19 21 20 21
24 24 25 24 25 25 22 13 7 9 13 13 11 12 11 9 10 14 11 8 8 10 13 16 18 18 22 22 20 18 15 16 22 23 25 27 27 19 13 14 13 13 17 17 13 9 12 18 17 16 16 18 16 11 13 12 9 7 12 18 18 15 14 14 17 13 7 6 9 10 8 4 8 11 9 5 5 9 11 13 15 17 18 18 19 21 21 22
24 24 24 24 23 24 23 16 12 14 16 15 12 14 13 11 13 13 8 6 7 7 11 15 14 16 22 24 22 17 10 13 21 24 26 26 28 23 14 12 11 13 14 12 9 8 12 17 18 16 18 17 14 10 9 12 11 8 10 15 15 15 13 10 12 11 7 7 9 11 10 6 8 11 13 14 10 10 12 11 13 16 19 19 19 21 22 23
24 23 24 24 19 20 23 23 20 18 16 15 16 17 14 13 14 10 6 6 3 6 10 13 12 12 18 22 24 18 12 15 17 21 27 27 28 24 16 14 13 14 15 12 10 9 12 15 16 19 18 13 11 11 12 14 13 10 5 8 13 14 14 10 7 7 6 7 7 9 11 8 5 9 13 15 14 14 15 13 12 14 18 21 21 22 23 24
24 23 24 24 19 16 20 25 23 17 12 12 15 16 14 13 12 8 6 6 3 4 7 11 13 11 15 19 22 21 19 17 15 18 27 27 28 24 14 15 16 15 17 15 11 10 12 16 16 18 16 11 9 12 15 15 14 12 6 9 12 13 10 9 6 6 5 6 7 8 8 6 4 6 10 12 13 15 16 15 15 19 22 22 22 23 23 25
24 23 22 25 22 15 20 24 16 10 10 11 13 14 14 12 8 7 7 5 4 6 10 10 11 13 15 15 16 20 20 17 17 21 26 25 28 26 18 17 17 14 15 16 14 13 14 15 14 12 13 11 9 12 15 15 16 13 9 11 11 9 6 6 6 6 6 5 8 11 10 8 6 5 9 11 15 16 14 13 15 21 26 25 24 24 24 26
25 23 21 24 23 18 22 21 8 8 8 9 12 13 12 8 6 7 7 4 5 7 12 9 11 15 17 15 13 17 18 15 17 20 19 19 22 22 17 14 13 11 12 12 13 16 16 14 9 9 13 14 12 14 16 17 17 10 6 9 9 4 4 4 6 6 6 6 8 13 15 12 9 6 8 12 18 19 15 15 17 20 25 27 27 26 25 26
26 24 22 22 22 22 24 19 8 8 12 10 12 12 9 7 7 8 7 4 3 7 10 10 13 15 17 17 13 16 17 13 15 18 16 14 14 15 14 10 9 10 10 10 11 14 15 14 12 11 17 19 14 12 14 16 15 8 6 9 8 6 5 5 6 5 6 8 8 12 14 11 8 7 9 10 13 18 19 17 18 21 24 26 29 29 27 27
26 24 23 20 22 25 25 19 12 13 14 11 12 10 7 7 8 9 11 8 4 8 9 11 15 16 18 17 14 16 17 13 14 17 16 16 14 14 17 16 14 12 9 10 11 11 11 12 15 14 14 19 17 10 9 10 10 9 7 7 8 7 6 6 7 6 7 9 10 14 11 8 7 5 9 11 9 15 24 21 18 23 28 28 29 31 30 28
25 24 23 21 22 25 22 17 14 13 11 9 9 9 9 9 9 11 14 12 7 8 10 11 16 18 17 16 14 15 15 13 16 16 15 16 13 13 16 18 19 14 10 11 10 10 10 8 13 13 11 15 17 11 10 9 8 8 8 9 9 7 6 6 6 6 8 8 11 15 10 6 4 2 5 6 4 3 16 18 14 17 23 25 26 30 31 29
25 22 23 22 22 22 18 15 15 12 10 9 8 8 10 9 9 12 12 12 12 11 7 7 12 15 15 14 15 18 15 12 17 17 14 15 13 13 14 15 18 16 12 10 8 10 12 8 12 15 13 15 14 12 13 12 9 9 9 10 9 8 8 6 7 6 8 6 6 8 6 3 2 1 4 4 3 4 5 7 8 11 13 17 21 26 29 29
24 21 21 21 21 18 14 13 14 13 12 11 9 8 10 9 9 10 9 11 13 9 6 7 11 12 12 12 13 20 19 14 16 15 12 15 15 15 16 13 17 20 15 10 7 9 11 9 15 17 15 17 16 14 12 12 8 7 9 11 11 9 8 7 8 8 8 7 4 5 6 5 4 5 7 9 6 5 4 5 6 6 10 15 20 23 25 26
23 22 21 20 19 15 14 15 12 13 15 12 9 9 9 11 15 14 12 13 13 9 10 9 10 10 11 12 11 17 19 15 14 14 11 14 15 17 18 16 19 23 20 15 8 8 10 7 17 22 17 18 20 19 13 13 12 8 8 10 9 10 9 5 4 5 6 7 5 7 9 7 5 4 6 11 11 8 8 7 7 6 9 12 17 24 28 27
23 23 21 20 16 13 17 18 11 14 16 11 10 12 11 13 18 19 18 18 15 10 11 10 8 11 13 11 12 17 18 13 13 13 11 11 12 17 19 16 19 23 25 22 12 9 11 8 13 23 18 16 19 17 13 14 17 13 8 9 8 9 9 5 2 4 5 6 5 7 9 7 5 4 3 9 13 11 10 9 7 7 9 11 13 21 33 36
21 18 17 14 9 16 21 18 13 16 14 9 10 11 12 15 20 25 25 21 16 12 10 11 8 11 14 12 12 16 18 15 13 11 10 9 10 18 20 15 17 22 26 24 13 8 10 7 6 19 19 15 15 12 10 10 14 15 11 8 7 7 6 4 4 4 6 6 5 7 8 5 4 3 9 12 11 9 6 5 5 5 5 10 13 16 28 38
16 11 12 5 10 19 21 16 14 14 11 9 11 11 12 15 20 28 31 23 16 12 9 11 12 10 13 16 15 14 15 16 15 11 10 11 11 16 21 17 16 21 25 25 16 9 8 7 5 13 17 14 10 10 12 11 11 11 10 8 7 7 5 5 6 6 6 6 4 6 6 2 3 4 10 11 7 6 5 1 2 5 4 6 10 14 20 30
11 9 10 5 14 18 18 14 12 12 8 9 12 13 14 15 16 23 29 26 18 14 13 14 14 9 8 12 14 13 13 14 16 13 9 13 13 11 17 20 17 18 21 19 15 11 7 6 7 9 11 12 11 13 16 16 14 11 8 8 8 6 6 6 6 7 6 6 4 6 4 2 5 5 7 9 6 6 7 3 1 6 7 5 3 10 15 21
8 8 7 10 15 15 15 11 9 10 9 10 14 15 17 16 16 18 22 23 18 14 15 15 14 11 10 11 13 14 13 12 14 14 10 14 16 11 16 24 23 19 17 13 14 16 10 5 7 10 9 12 15 16 17 17 17 13 11 10 9 7 6 6 6 6 6 7 7 6 4 2 4 4 6 8 7 4 6 5 3 1 6 4 1 4 7 14
10 13 10 8 14 14 12 8 9 10 9 13 17 20 21 18 16 17 18 19 15 12 12 12 13 13 13 13 14 15 15 13 14 16 14 14 17 16 19 27 27 21 15 12 13 16 11 4 6 8 8 11 15 14 15 17 15 13 11 12 10 10 10 10 7 4 5 9 7 5 4 3 4 4 6 8 6 3 5 7 3 2 3 2 3 3 4 10
17 20 19 13 13 15 13 8 9 9 10 14 17 19 23 20 18 18 16 15 12 11 12 13 13 14 13 14 15 14 14 11 14 18 16 12 15 20 24 28 26 20 14 13 12 10 8 4 5 6 6 8 11 10 12 15 13 10 11 13 15 15 15 13 8 4 5 8 7 6 5 4 4 4 6 5 2 1 1 4 6 7 6 2 2 2 5 11
17 15 18 18 16 17 16 12 11 10 11 16 17 18 20 20 21 21 17 14 14 13 11 13 16 16 14 15 15 14 14 13 11 17 16 14 13 18 24 25 23 22 15 14 16 12 8 5 4 6 8 9 9 8 9 10 11 10 13 16 18 20 19 13 6 5 6 6 6 7 3 4 6 4 3 3 3 1 2 5 4 5 9 7 5 3 5 11
11 6 9 13 16 20 19 19 19 14 10 12 13 15 18 17 19 19 15 12 15 17 15 13 17 17 16 16 15 13 13 15 12 9 13 15 11 13 21 23 24 20 5 6 11 12 7 8 9 7 7 9 8 8 11 12 11 14 16 18 17 17 17 12 7 6 5 5 5 6 5 5 8 7 4 4 6 5 5 5 2 2 3 5 10 10 8 9
6 6 7 5 8 16 16 18 19 13 13 13 8 10 17 19 16 14 12 12 16 19 17 15 16 15 14 16 14 12 13 14 15 12 14 17 13 13 19 23 23 13 6 4 11 11 5 8 13 11 11 14 14 11 13 14 13 13 15 17 18 17 17 14 10 7 5 6 6 8 12 13 11 11 10 8 7 5 3 4 3 4 9 9 8 13 12 8
6 12 16 13 8 9 8 11 15 14 17 17 10 10 16 18 17 12 11 14 18 18 14 13 16 15 14 14 12 11 12 11 13 13 10 10 10 11 15 17 15 12 6 9 14 9 6 9 13 17 18 19 19 18 16 14 13 14 14 16 18 18 20 18 14 12 8 6 5 6 11 14 11 10 11 9 6 4 3 2 2 4 8 11 10 9 11 11
10 14 18 18 14 12 14 16 16 13 15 15 11 13 13 14 17 14 11 12 15 17 16 13 13 15 17 15 11 9 9 8 10 11 7 8 9 6 10 11 11 14 11 14 11 7 7 8 13 17 16 17 20 21 22 19 16 16 17 19 19 20 23 20 17 19 16 12 10 8 10 10 9 7 9 7 3 5 6 4 4 8 10 10 11 13 13 14
13 11 15 22 19 16 19 19 15 10 11 12 10 11 12 13 16 15 13 13 13 14 16 17 16 16 17 16 13 12 7 4 8 9 10 12 10 5 6 8 9 12 13 13 10 9 9 7 10 12 10 15 21 21 20 20 18 18 18 19 21 22 22 19 17 18 16 15 16 10 8 7 7 7 8 6 3 2 1 3 6 10 11 12 14 15 17 19
16 13 14 17 14 12 15 14 12 8 8 8 7 8 12 14 14 11 10 12 13 12 11 16 16 14 17 16 14 12 6 3 6 8 10 10 7 5 5 5 8 11 12 12 10 10 10 8 8 9 10 12 15 16 18 18 20 22 20 21 23 20 17 15 14 15 14 12 11 7 4 4 5 7 7 5 5 5 6 6 10 10 9 11 12 13 16 20
19 17 14 13 10 11 12 11 9 8 7 8 9 11 13 13 14 13 6 5 13 14 11 12 10 7 12 11 4 5 8 7 8 9 12 12 8 6 6 5 9 11 9 9 8 8 9 8 8 10 10 10 13 18 18 15 16 16 15 18 20 16 15 15 15 16 16 9 4 4 4 3 3 0 2 3 5 5 4 4 6 5 5 7 10 13 16 17
Wind_Direction
339 339 339 339 340 340 340 339 338 337 336 335 336 337 336 336 335 334 333 330 326 319 311 305 302 298 291 286 284 279 279 278 277 275 261 241 222 223 226 230 239 239 240 242 232 233 242 242 241 238 235 235 235 239 221 215 243 232 246 251 185 48 91 112 113 119 129 127 137 131 116 118 118 113 122 124 108 106 104 102 109 114 118 123 128 134 135 134
336 337 337 337 338 338 338 337 336 336 335 334 334 335 335 334 334 333 332 330 326 321 314 306 301 294 290 285 282 280 277 277 279 270 251 229 215 219 221 225 231 231 229 224 226 230 235 232 216 227 231 228 222 211 209 216 224 224 263 277 102 68 82 86 108 126 127 128 129 124 118 115 118 126 136 123 104 112 111 104 105 108 114 123 130 135 135 136
334 335 335 335 336 337 336 335 335 335 334 332 332 333 333 332 332 332 333 331 328 324 318 307 299 293 288 282 280 277 278 285 280 267 247 222 214 216 217 222 225 226 227 220 224 228 240 240 211 218 230 237 219 187 212 212 202 215 239 230 78 67 85 78 98 117 116 122 120 117 117 119 127 124 125 117 114 122 120 117 118 121 126 132 135 139 140 139
332 333 334 334 334 335 335 335 334 333 332 330 331 332 331 331 331 332 334 333 330 327 322 308 298 293 285 277 274 274 286 289 276 267 251 222 214 213 215 218 217 222 225 205 221 235 246 251 237 219 225 240 224 196 206 166 174 293 2 90 109 90 85 94 116 118 118 120 113 122 122 126 107 84 77 87 112 131 136 138 139 136 136 139 141 143 145 144
331 332 332 333 333 334 334 333 333 331 331 329 330 331 329 331 330 332 336 334 331 329 324 313 304 292 278 271 266 265 276 284 294 269 229 210 210 210 211 213 212 219 217 194 224 246 241 248 247 223 224 243 226 209 219 155 252 273 55 47 73 93 103 111 112 108 115 117 119 128 109 106 90 78 70 57 44 193 139 141 142 141 142 143 145 145 146 147
329 331 331 332 332 332 333 332 332 330 329 328 328 330 329 329 330 332 336 334 331 330 326 316 311 294 273 264 258 252 245 245 30 357 208 197 205 207 207 208 209 211 200 197 227 244 233 239 246 227 220 238 237 235 210 156 299 269 100 65 53 85 106 101 103 119 128 118 119 113 95 97 94 96 96 90 187 242 123 133 140 141 144 143 145 148 149 152
328 329 329 330 330 331 332 331 331 329 328 327 327 330 328 329 329 331 336 334 328 328 326 316 307 287 269 258 257 249 238 251 287 300 213 196 203 203 205 205 206 203 193 205 225 232 226 228 236 232 227 232 231 225 187 155 100 4 110 129 112 103 111 111 127 140 125 114 120 115 109 102 91 104 114 126 177 175 116 130 137 139 144 144 147 149 151 155
326 327 328 329 329 330 330 330 330 328 327 326 325 328 328 328 328 330 335 333 326 325 325 317 304 280 261 249 255 254 246 251 257 253 236 219 208 201 202 200 202 197 194 207 220 224 222 223 228 230 240 247 222 198 151 164 133 106 98 99 110 120 122 127 130 122 112 110 113 109 101 92 91 102 108 118 134 124 122 131 135 141 146 147 150 149 152 157
325 325 326 327 328 328 328 329 328 327 327 325 324 327 328 328 327 328 334 332 324 321 322 318 307 276 249 241 246 266 257 237 220 227 242 243 217 199 199 197 199 194 198 211 218 226 221 221 226 227 253 276 219 171 120 230 159 100 105 116 135 132 128 135 127 119 112 104 102 101 95 98 105 106 102 104 110 120 129 132 138 145 148 150 152 150 153 160
324 324 324 325 326 326 327 327 327 326 326 324 324 325 327 327 326 326 331 332 322 316 320 319 316 278 240 237 241 258 252 189 195 225 242 245 216 196 195 194 198 196 202 213 216 227 224 219 223 225 263 289 208 152 137 219 117 102 150 146 135 133 147 145 124 116 112 115 119 114 116 123 121 115 110 113 119 127 130 133 141 145 149 153 151 150 155 163
323 323 323 323 324 324 325 325 325 325 324 324 323 323 325 325 324 324 327 330 320 313 318 319 325 282 220 225 244 241 213 176 196 197 210 227 205 192 191 189 197 199 202 213 215 225 227 224 234 232 242 259 209 154 128 164 122 135 159 129 136 159 158 135 120 132 135 129 127 128 136 130 113 106 117 125 130 136 136 139 144 146 152 153 150 150 158 166
322 322 322 322 322 322 323 323 323 323 323 323 322 322 323 322 323 322 323 327 318 310 312 315 324 272 205 234 240 223 201 240 206 185 196 205 198 191 188 187 195 201 201 212 216 224 233 234 257 255 227 210 211 139 125 156 135 146 151 138 167 169 145 131 132 149 142 125 132 142 135 113 103 110 124 132 133 136 140 143 146 149 152 151 149 152 164 169
320 321 321 321 321 321 321 321 321 321 321 321 320 320 320 320 321 318 319 323 316 307 303 310 319 258 210 250 237 215 218 261 217 198 198 194 196 192 190 192 196 202 205 214 215 219 235 245 267 259 241 241 215 113 130 154 130 147 162 163 173 161 155 158 150 148 139 129 153 164 129 101 115 123 133 138 138 142 144 143 146 152 156 155 152 157 167 168
319 319 319 319 320 319 320 320 320 319 319 319 319 319 318 318 317 315 317 318 312 301 289 296 306 257 226 252 250 228 222 230 217 203 196 189 192 191 193 197 198 203 210 220 222 221 232 242 260 258 246 250 236 131 152 147 130 175 172 160 184 170 169 173 160 156 144 138 178 174 121 120 126 131 142 143 146 152 149 148 157 163 163 159 156 163 167 168
318 318 318 318 318 318 318 318 318 317 318 318 317 317 317 315 313 312 314 315 310 292 275 278 283 259 251 264 273 237 210 213 226 207 196 191 187 187 192 195 200 203 209 222 226 224 225 226 244 253 244 252 248 195 178 156 157 190 172 172 211 175 160 181 170 169 157 163 200 190 127 136 134 142 148 148 156 157 152 155 165 168 164 161 161 167 167 167
317 317 317 317 316 317 317 316 317 316 316 316 315 315 315 312 309 309 310 314 307 279 252 259 303 292 274 275 260 216 207 216 223 204 193 191 188 187 189 193 201 204 209 221 229 223 210 219 236 242 240 250 249 198 163 169 177 173 186 194 203 181 178 186 169 184 185 178 200 208 177 143 137 151 153 158 159 152 153 157 164 167 162 163 163 166 168 168
316 316 315 315 315 315 315 316 315 315 315 315 314 313 315 310 305 305 305 310 302 260 231 210 328 288 259 255 237 217 212 211 207 196 190 190 191 188 186 192 200 202 208 217 231 224 201 214 229 235 239 236 229 204 160 182 186 164 201 203 187 196 199 179 170 186 191 194 169 139 180 138 134 157 160 167 163 152 158 156 161 169 161 160 162 167 170 170
316 315 314 314 314 314 314 315 314 314 313 314 313 312 313 307 302 301 295 303 300 250 244 220 199 275 251 233 238 230 206 198 193 189 186 187 194 191 186 192 195 195 205 210 219 220 202 208 221 224 231 217 218 220 180 190 187 170 201 201 188 205 203 185 183 179 180 207 149 125 158 139 138 161 163 174 171 160 163 159 162 170 165 162 165 172 171 171
316 315 314 313 313 313 313 313 314 313 312 312 311 310 312 305 298 297 270 245 252 243 256 211 189 232 284 226 221 222 196 187 184 183 184 188 192 188 186 192 195 195 203 204 200 209 199 199 216 221 226 208 208 224 210 194 177 178 208 201 189 200 192 192 207 183 177 194 162 145 168 151 148 166 166 177 177 166 164 160 161 165 170 170 170 176 174 174
316 315 313 312 312 311 311 312 313 313 312 312 312 314 315 309 300 283 158 223 251 268 274 245 202 226 268 238 197 198 183 176 181 184 184 191 189 183 186 192 196 197 206 205 188 199 200 200 211 216 225 205 203 226 231 216 182 182 208 203 195 201 187 188 200 187 175 195 188 154 162 160 157 166 170 180 179 169 168 164 161 163 173 179 175 178 175 176
316 314 313 312 311 311 310 311 312 312 312 309 310 312 303 304 322 347 320 272 268 273 270 264 241 240 260 261 199 184 176 174 188 190 183 191 193 183 183 191 196 194 206 209 194 197 204 211 209 211 223 205 202 221 226 230 217 200 204 198 205 210 193 189 187 180 177 202 211 150 156 164 161 171 176 181 181 176 175 172 166 166 174 181 179 178 175 174
315 314 313 312 311 310 310 310 312 310 308 304 303 301 288 295 317 323 315 295 284 279 265 259 251 247 255 260 215 177 176 183 190 193 184 188 197 188 180 189 200 192 201 208 195 195 206 218 212 209 222 211 206 225 228 224 223 225 212 192 216 209 187 188 178 173 175 194 194 165 174 174 165 180 180 179 185 184 181 178 172 170 172 177 180 179 175 171
315 313 312 313 311 311 310 310 314 312 309 303 296 293 291 296 306 310 304 288 284 281 267 251 240 237 237 237 203 170 186 196 188 191 185 187 198 193 181 188 204 195 197 208 200 196 202 215 216 210 218 219 205 218 248 246 227 253 251 203 218 207 196 194 167 171 179 202 209 174 180 184 169 193 193 184 188 188 187 184 179 175 172 176 183 181 177 174
315 313 312 313 312 311 312 314 320 322 313 304 296 297 304 299 298 311 304 284 279 273 263 249 233 228 223 218 191 179 201 203 193 191 183 189 199 197 191 194 203 201 199 207 207 207 205 210 220 214 211 228 218 197 226 252 232 237 254 237 210 193 205 186 155 173 184 200 220 183 172 162 185 206 200 192 198 195 192 186 184 182 178 180 183 180 179 180
315 314 312 313 313 311 314 320 317 292 287 287 292 302 313 305 298 316 308 286 274 259 249 238 228 221 213 207 193 191 207 205 201 193 182 191 200 197 199 197 203 211 201 204 210 212 210 207 218 223 208 219 233 207 198 225 231 205 233 248 246 223 211 170 156 178 198 198 205 203 195 162 189 199 180 242 244 215 197 189 190 186 180 182 183 180 181 182
315 314 312 313 315 313 316 319 296 275 276 277 297 315 321 316 307 312 305 279 272 247 216 204 206 202 198 201 193 193 210 204 202 196 182 192 203 201 202 196 207 220 203 203 214 218 214 201 205 229 221 209 227 229 197 208 237 215 212 238 258 257 227 189 178 195 227 211 188 205 227 182 177 187 170 177 249 246 216 199 195 187 179 186 190 184 183 182
313 312 311 311 315 318 315 307 292 286 278 281 314 326 322 319 309 308 298 266 260 223 179 170 174 181 192 194 183 188 212 186 192 200 186 190 204 206 212 198 198 221 210 202 211 219 224 203 190 215 228 215 214 225 202 197 227 238 200 211 244 265 255 228 207 201 207 213 197 207 226 211 183 187 180 176 193 228 224 210 202 191 183 192 199 190 186 186
311 310 309 307 312 317 310 301 298 295 282 283 303 308 309 314 307 299 281 267 233 155 154 159 163 182 197 189 177 194 216 178 182 199 186 189 203 205 217 211 201 218 215 212 210 204 223 216 192 200 223 226 203 206 207 199 220 243 232 223 226 246 280 283 233 208 197 210 224 223 225 230 200 172 179 185 193 211 213 207 207 207 200 199 202 197 190 189
308 307 307 303 305 308 299 294 295 299 296 290 292 293 299 305 300 285 254 262 251 152 150 159 166 182 196 183 178 202 215 189 185 187 178 189 206 210 225 222 211 217 217 222 222 200 213 228 212 197 212 228 195 201 212 204 219 227 240 271 230 208 251 273 255 271 269 237 245 243 222 228 235 170 176 191 203 210 206 198 203 213 213 206 204 202 195 188
305 304 306 301 300 303 294 290 298 329 332 311 301 300 296 290 278 256 230 241 260 183 151 155 167 175 187 179 180 207 213 198 188 180 175 186 202 213 230 228 219 221 218 219 225 218 208 221 231 205 203 221 198 205 217 209 225 223 203 246 240 190 199 241 253 271 275 252 250 251 225 210 234 205 181 195 206 211 206 194 201 211 209 203 203 206 201 189
301 300 302 297 296 296 287 283 308 359 325 307 315 306 286 266 246 249 227 222 262 187 151 163 174 171 184 184 186 206 211 205 189 176 174 184 195 208 221 226 224 223 218 212 219 227 211 199 219 207 202 215 203 207 216 206 218 230 197 225 240 198 179 224 242 239 250 251 243 248 236 227 243 224 199 205 201 199 199 196 202 208 205 199 199 206 204 192
298 297 295 292 290 284 276 277 290 282 261 268 302 298 270 237 226 238 229 219 226 172 166 184 178 175 189 192 194 201 205 209 192 176 177 186 190 200 212 215 208 209 216 209 207 223 217 192 188 197 207 215 206 202 213 203 197 203 217 222 220 210 201 214 228 222 240 248 244 249 245 242 250 224 214 222 199 187 187 198 204 198 199 200 197 200 203 197
296 295 293 287 282 275 271 278 282 265 259 270 285 279 252 238 231 227 234 234 169 161 192 191 177 182 190 193 197 196 200 206 187 175 180 192 193 196 211 216 207 207 212 208 205 213 213 184 179 192 204 213 217 207 199 197 182 183 217 225 212 211 202 209 227 231 239 242 239 243 248 258 256 213 206 225 220 187 183 198 210 191 191 201 199 195 199 200
296 298 295 285 276 272 271 276 270 260 262 262 259 250 235 235 238 235 236 235 217 208 213 188 178 186 191 199 198 189 202 204 184 180 182 191 200 195 206 218 215 217 216 208 206 205 205 177 179 198 192 198 223 223 188 186 187 191 218 228 220 216 211 217 222 224 237 237 228 228 229 241 246 139 184 233 321 138 169 189 197 174 183 200 200 194 194 199
299 300 295 285 274 271 269 264 256 247 239 232 235 238 229 226 234 241 241 236 238 239 229 197 189 188 191 206 200 189 208 209 181 186 191 190 203 201 198 212 216 217 217 209 199 199 213 198 183 202 196 184 213 228 190 186 198 193 210 235 232 208 204 230 246 253 261 255 237 239 229 202 217 185 197 209 10 45 151 199 188 151 169 186 189 192 190 195
305 302 295 286 276 272 266 252 242 228 214 217 228 229 228 230 231 236 239 234 240 256 270 230 207 198 190 201 205 192 203 216 184 181 200 197 202 207 200 201 209 214 218 211 190 191 213 201 177 194 204 185 203 232 197 179 203 188 192 232 249 235 216 224 244 254 265 261 245 250 243 210 224 259 218 186 182 198 194 254 248 185 170 165 169 185 190 192
312 309 299 280 266 260 249 245 234 209 204 213 229 232 231 234 235 241 252 250 248 269 281 244 205 210 201 191 207 196 193 209 193 181 202 200 198 208 205 201 205 214 222 221 205 197 219 210 172 183 201 186 197 231 217 186 209 209 186 207 236 258 243 224 247 243 242 252 231 222 237 224 195 225 215 171 162 180 177 193 233 207 178 169 168 180 187 196
320 319 305 279 256 224 222 237 221 191 201 215 231 239 243 242 240 243 253 258 254 251 262 254 204 207 213 196 200 199 190 194 192 188 201 198 193 203 206 204 203 212 224 226 218 199 215 233 174 176 193 186 188 224 230 197 209 225 218 194 200 240 233 197 262 278 252 254 242 235 249 246 215 203 168 148 154 178 177 169 195 194 183 187 182 178 182 193
327 322 302 283 236 190 204 221 203 191 206 219 224 234 243 249 249 249 256 266 269 257 258 272 243 206 217 219 203 197 194 194 196 195 199 196 186 195 202 205 202 209 221 224 223 199 204 242 187 170 185 189 179 207 229 204 210 231 244 228 213 242 238 185 200 245 258 246 231 244 242 230 242 182 142 146 162 176 153 128 165 174 190 191 182 179 177 183
325 302 284 273 163 179 197 203 196 201 215 221 225 233 236 243 250 253 258 263 267 259 255 273 261 213 214 228 217 201 194 197 205 202 192 191 183 188 199 203 201 205 215 221 225 220 208 228 208 168 183 197 181 191 217 214 206 218 242 243 219 212 206 187 191 204 239 250 237 251 242 155 39 78 125 133 128 118 112 86 172 154 226 233 183 178 175 176
317 278 268 198 156 174 187 190 203 214 220 223 229 238 241 245 250 249 251 253 254 247 241 256 259 241 235 239 229 215 195 192 210 212 190 190 196 195 199 204 204 200 209 219 223 227 221 207 198 173 185 210 197 186 208 223 215 201 211 236 238 226 209 204 202 192 216 253 257 256 255 80 60 64 100 116 115 114 131 161 219 156 183 238 194 173 178 183
300 261 251 183 172 181 183 194 222 219 221 229 228 236 244 250 254 249 247 249 250 240 234 245 257 265 280 273 255 242 216 191 202 216 206 196 205 210 195 200 208 202 202 213 216 223 226 195 195 186 186 222 217 191 198 224 234 223 207 215 239 252 236 226 217 187 200 229 234 247 249 95 68 68 87 95 96 70 82 95 330 329 143 162 211 198 196 183
282 275 275 204 188 201 206 222 234 218 225 235 231 238 244 246 248 249 248 244 239 231 230 240 248 249 261 269 267 255 232 202 194 214 224 207 204 212 197 196 207 206 200 205 210 218 221 204 217 202 183 217 222 201 194 211 233 242 221 205 222 239 236 240 235 193 220 233 222 241 228 144 69 58 84 89 107 156 127 125 201 273 93 152 197 189 201 166
298 288 277 247 210 213 226 235 230 225 228 231 233 239 243 245 244 242 244 245 242 236 227 231 242 244 249 258 267 267 252 225 192 202 227 221 202 211 204 196 206 211 197 194 199 204 206 203 224 219 198 204 209 204 202 201 208 237 240 212 207 219 228 240 242 192 225 245 228 234 223 138 84 68 96 102 114 208 118 135 191 182 154 220 236 169 200 185
307 288 261 245 221 218 233 240 240 242 228 225 234 237 238 244 242 235 237 246 255 259 247 230 234 244 251 251 257 269 277 270 217 194 216 226 204 207 205 195 206 220 206 187 194 200 202 195 204 222 218 205 195 203 220 213 195 210 242 234 213 211 218 226 236 207 207 230 229 234 230 124 132 144 122 135 138 62 296 264 247 172 159 183 206 246 240 195
303 292 251 238 220 219 232 241 247 257 249 235 236 238 239 241 234 226 226 237 245 254 264 251 232 233 239 240 250 264 274 280 266 214 210 223 213 204 205 197 202 215 201 129 186 210 215 204 211 224 231 230 217 199 214 232 220 199 213 235 238 235 227 217 222 224 186 176 200 210 212 185 174 184 208 217 192 175 191 216 252 304 259 209 194 208 224 196
278 298 302 304 242 226 225 231 239 248 251 248 249 250 248 246 234 211 206 230 237 239 256 262 242 233 231 230 243 266 267 269 275 258 219 217 222 208 203 205 200 184 79 94 196 214 237 223 223 222 225 242 249 230 213 224 236 219 207 221 235 246 251 244 235 226 174 169 201 192 198 209 202 193 199 207 212 199 160 170 197 265 276 271 226 202 202 203
282 302 308 336 326 254 245 246 245 242 239 240 245 251 253 255 249 221 201 222 232 233 248 257 245 245 247 236 236 256 258 258 274 271 234 223 247 222 199 207 194 140 111 227 211 205 240 243 240 230 218 227 246 255 247 236 235 233 226 231 232 231 240 248 250 245 221 209 220 169 182 213 217 205 211 215 225 252 275 276 297 299 275 268 265 239 221 221
320 317 312 332 328 294 300 296 281 267 248 240 237 241 255 265 257 241 222 220 221 225 235 243 242 246 245 238 234 244 253 269 293 303 321 338 320 259 203 208 193 156 177 227 220 201 228 244 249 243 226 219 228 239 246 249 247 235 226 233 237 231 230 234 245 252 246 238 234 186 170 210 227 227 239 246 262 284 297 304 298 301 295 281 278 280 267 248
345 335 319 326 320 301 301 296 287 277 251 242 242 239 244 251 250 240 224 220 221 222 230 235 237 247 248 236 231 235 233 283 310 317 333 344 350 313 242 223 211 188 190 217 217 195 206 232 247 247 239 229 226 225 229 241 254 252 238 232 235 236 234 229 231 243 245 244 242 215 169 193 218 225 238 248 256 258 313 314 270 271 279 276 271 271 274 271
344 327 316 319 309 300 305 296 286 276 247 242 251 248 242 242 250 248 224 226 235 226 235 245 237 246 258 242 226 236 246 331 320 318 324 330 349 326 281 241 238 227 203 207 217 197 196 216 235 239 240 239 240 238 232 232 242 250 248 244 241 239 240 238 232 235 238 239 240 232 214 214 209 206 212 231 239 201 178 220 244 251 261 269 277 279 276 277
342 333 330 324 298 287 293 284 279 277 259 249 245 245 249 249 252 252 246 282 265 234 226 255 251 253 263 245 214 306 317 326 319 315 313 311 304 277 262 249 256 249 211 202 220 218 212 215 222 233 236 237 243 245 243 240 241 242 243 249 249 241 237 242 241 239 239 233 218 223 246 318 9 360 232 261 252 214 192 230 249 274 297 287 288 291 285 279